QPF
0.00 0.00 0.00 0.00 0.00 0.00 0.00 0.00 0.00 0.00 0.00 0.00 0.00 0.00 0.00 0.00 0.00 0.00 0.00 0.00 0.00 0.00 0.00 0.00 0.00 0.00 0.00 0.00 0.00 0.00 0.00 0.00 0.00 0.02 0.00 0.00 0.00 0.00 0.00 0.00 0.00 0.00 0.00 0.00 0.00
0.00 0.00 0.00 0.00 0.00 0.00 0.00 0.00 0.00 0.00 0.00 0.00 0.00 0.00 0.00 0.00 0.00 0.00 0.00 0.00 0.00 0.00 0.00 0.00 0.00 0.00 0.00 0.00 0.00 0.06 0.00 0.00 0.00 0.01 0.00 0.00 0.00 0.00 0.00 0.00 0.00 0.00 0.00 0.00 0.00
0.00 0.00 0.00 0.00 0.00 0.00 0.00 0.00 0.00 0.00 0.00 0.00 0.00 0.00 0.00 0.00 0.00 0.00 0.00 0.00 0.00 0.00 0.00 0.00 0.00 0.00 0.00 0.00 0.00 0.03 0.01 0.00 0.00 0.00 0.00 0.00 0.00 0.00 0.00 0.00 0.00 0.00 0.00 0.00 0.00
0.00 0.00 0.00 0.00 0.00 0.00 0.00 0.00 0.00 0.00 0.00 0.00 0.00 0.00 0.00 0.00 0.00 0.00 0.00 0.00 0.00 0.00 0.00 0.00 0.00 0.00 0.00 0.01 0.00 0.00 0.00 0.00 0.00 0.00 0.00 0.00 0.00 0.00 0.00 0.00 0.00 0.00 0.00 0.00 0.00
0.00 0.00 0.00 0.00 0.00 0.00 0.00 0.00 0.00 0.00 0.00 0.00 0.00 0.00 0.00 0.00 0.00 0.00 0.00 0.00 0.00 0.00 0.00 0.00 0.00 0.02 0.02 0.00 0.00 0.00 0.00 0.00 0.00 0.00 0.00 0.00 0.00 0.00 0.00 0.00 0.00 0.00 0.00 0.00 0.00
0.00 0.00 0.00 0.00 0.00 0.00 0.00 0.00 0.00 0.00 0.00 0.00 0.00 0.00 0.00 0.00 0.00 0.00 0.00 0.00 0.00 0.00 0.00 0.00 0.00 0.00 0.00 0.00 0.03 0.00 0.00 0.00 0.00 0.00 0.00 0.00 0.00 0.00 0.00 0.00 0.00 0.00 0.00 0.00 0.00
0.00 0.00 0.00 0.00 0.00 0.00 0.00 0.00 0.00 0.00 0.00 0.00 0.00 0.00 0.00 0.00 0.00 0.00 0.00 0.00 0.00 0.00 0.00 0.00 0.00 0.00 0.00 0.00 0.00 0.00 0.00 0.00 0.00 0.00 0.00 0.00 0.01 0.00 0.00 0.00 0.00 0.00 0.00 0.00 0.00
0.00 0.00 0.00 0.00 0.00 0.00 0.00 0.00 0.00 0.00 0.00 0.00 0.00 0.00 0.00 0.00 0.00 0.00 0.00 0.00 0.00 0.00 0.00 0.00 0.00 0.00 0.00 0.00 0.00 0.00 0.00 0.00 0.00 0.00 0.00 0.02 0.08 0.00 0.00 0.00 0.00 0.00 0.00 0.00 0.00
0.00 0.00 0.00 0.00 0.00 0.00 0.00 0.00 0.00 0.00 0.00 0.00 0.00 0.00 0.00 0.00 0.00 0.00 0.00 0.00 0.00 0.00 0.00 0.00 0.00 0.00 0.00 0.00 0.00 0.00 0.03 0.00 0.00 0.00 0.00 0.00 0.02 0.00 0.00 0.00 0.00 0.00 0.00 0.00 0.00
0.00 0.00 0.00 0.00 0.00 0.00 0.00 0.00 0.00 0.00 0.00 0.00 0.00 0.00 0.00 0.00 0.00 0.00 0.00 0.00 0.00 0.00 0.00 0.00 0.00 0.00 0.00 0.00 0.01 0.01 0.00 0.00 0.00 0.00 0.00 0.00 0.00 0.00 0.00 0.00 0.00 0.00 0.00 0.00 0.00
0.00 0.00 0.00 0.00 0.00 0.00 0.00 0.00 0.00 0.00 0.00 0.00 0.00 0.00 0.00 0.00 0.00 0.00 0.00 0.00 0.00 0.00 0.02 0.00 0.00 0.00 0.00 0.01 0.02 0.01 0.01 0.00 0.00 0.00 0.00 0.00 0.01 0.00 0.00 0.00 0.00 0.00 0.00 0.00 0.00
0.00 0.00 0.00 0.00 0.00 0.00 0.00 0.00 0.00 0.00 0.00 0.00 0.00 0.00 0.00 0.00 0.00 0.00 0.00 0.00 0.00 0.01 0.00 0.00 0.05 0.00 0.00 0.00 0.00 0.00 0.00 0.01 0.00 0.00 0.00 0.00 0.00 0.00 0.00 0.00 0.00 0.00 0.00 0.00 0.00
0.00 0.00 0.00 0.00 0.00 0.00 0.00 0.00 0.00 0.00 0.00 0.00 0.00 0.00 0.00 0.00 0.00 0.00 0.00 0.00 0.00 0.05 0.00 0.03 0.00 0.00 0.00 0.01 0.00 0.01 0.01 0.02 0.00 0.00 0.00 0.00 0.00 0.00 0.00 0.00 0.00 0.00 0.00 0.00 0.00
0.00 0.00 0.00 0.00 0.00 0.00 0.00 0.00 0.00 0.00 0.00 0.00 0.00 0.00 0.00 0.00 0.00 0.00 0.00 0.00 0.00 0.03 0.04 0.02 0.01 0.00 0.00 0.00 0.00 0.04 0.01 0.00 0.00 0.00 0.03 0.01 0.01 0.00 0.00 0.00 0.00 0.00 0.00 0.00 0.00
0.00 0.00 0.00 0.00 0.00 0.00 0.00 0.00 0.00 0.00 0.00 0.00 0.00 0.00 0.00 0.00 0.00 0.00 0.00 0.00 0.00 0.01 0.00 0.02 0.00 0.00 0.00 0.00 0.00 0.02 0.00 0.00 0.00 0.00 0.00 0.00 0.00 0.02 0.00 0.00 0.00 0.00 0.00 0.00 0.00
0.00 0.00 0.00 0.00 0.00 0.00 0.00 0.00 0.00 0.00 0.00 0.00 0.00 0.00 0.00 0.00 0.00 0.00 0.00 0.00 0.00 0.00 0.00 0.01 0.00 0.00 0.00 0.00 0.00 0.00 0.00 0.00 0.00 0.00 0.00 0.05 0.02 0.01 0.04 0.00 0.00 0.00 0.00 0.00 0.00
0.00 0.00 0.00 0.00 0.00 0.00 0.00 0.00 0.00 0.00 0.00 0.00 0.00 0.00 0.00 0.00 0.00 0.00 0.00 0.00 0.00 0.00 0.00 0.01 0.01 0.00 0.00 0.00 0.00 0.00 0.00 0.00 0.01 0.02 0.02 0.06 0.01 0.00 0.00 0.00 0.00 0.00 0.00 0.00 0.00
0.00 0.00 0.00 0.00 0.00 0.00 0.00 0.00 0.00 0.00 0.00 0.00 0.00 0.00 0.00 0.00 0.00 0.00 0.00 0.00 0.00 0.00 0.02 0.04 0.04 0.01 0.00 0.00 0.00 0.01 0.00 0.00 0.00 0.00 0.01 0.09 0.07 0.00 0.00 0.00 0.00 0.00 0.00 0.00 0.00
0.00 0.00 0.00 0.00 0.00 0.00 0.00 0.00 0.00 0.00 0.00 0.00 0.00 0.00 0.00 0.00 0.00 0.00 0.00 0.00 0.00 0.00 0.00 0.00 0.00 0.00 0.00 0.00 0.00 0.00 0.00 0.00 0.00 0.00 0.00 0.00 0.00 0.00 0.00 0.00 0.00 0.00 0.00 0.00 0.00
0.00 0.00 0.00 0.00 0.00 0.00 0.00 0.00 0.00 0.00 0.00 0.00 0.00 0.00 0.00 0.00 0.00 0.00 0.00 0.00 0.00 0.00 0.00 0.00 0.00 0.00 0.00 0.00 0.00 0.00 0.00 0.00 0.00 0.00 0.00 0.00 0.00 0.00 0.00 0.00 0.00 0.00 0.00 0.00 0.00
0.00 0.00 0.00 0.00 0.00 0.00 0.00 0.00 0.00 0.00 0.00 0.00 0.00 0.00 0.00 0.00 0.00 0.00 0.00 0.00 0.00 0.00 0.00 0.00 0.00 0.00 0.00 0.00 0.00 0.00 0.00 0.00 0.00 0.00 0.00 0.00 0.00 0.00 0.00 0.00 0.00 0.00 0.00 0.00 0.00
0.00 0.00 0.00 0.00 0.00 0.00 0.00 0.00 0.00 0.00 0.00 0.00 0.00 0.00 0.00 0.00 0.00 0.00 0.00 0.00 0.00 0.00 0.00 0.00 0.00 0.00 0.00 0.00 0.00 0.00 0.00 0.00 0.00 0.00 0.00 0.00 0.00 0.00 0.00 0.00 0.00 0.00 0.00 0.00 0.00
0.00 0.00 0.00 0.00 0.00 0.00 0.00 0.00 0.00 0.00 0.00 0.00 0.00 0.00 0.00 0.00 0.00 0.00 0.00 0.00 0.00 0.00 0.00 0.00 0.00 0.00 0.00 0.00 0.00 0.00 0.00 0.00 0.00 0.00 0.00 0.00 0.00 0.00 0.00 0.00 0.00 0.00 0.00 0.00 0.00
0.00 0.00 0.00 0.00 0.00 0.00 0.00 0.00 0.00 0.00 0.00 0.00 0.00 0.00 0.00 0.00 0.00 0.00 0.00 0.00 0.00 0.00 0.00 0.00 0.00 0.00 0.00 0.00 0.00 0.00 0.00 0.00 0.00 0.00 0.00 0.00 0.00 0.00 0.00 0.00 0.00 0.00 0.00 0.00 0.00
0.00 0.00 0.00 0.00 0.00 0.00 0.00 0.00 0.00 0.00 0.00 0.00 0.00 0.00 0.00 0.00 0.00 0.00 0.00 0.00 0.00 0.00 0.00 0.00 0.00 0.00 0.00 0.00 0.00 0.00 0.00 0.00 0.00 0.00 0.00 0.00 0.00 0.00 0.00 0.00 0.00 0.00 0.00 0.00 0.00
0.00 0.00 0.00 0.00 0.00 0.00 0.00 0.00 0.00 0.00 0.00 0.00 0.00 0.00 0.00 0.00 0.00 0.00 0.00 0.00 0.00 0.00 0.00 0.00 0.00 0.00 0.00 0.00 0.00 0.00 0.00 0.00 0.00 0.00 0.00 0.00 0.00 0.00 0.00 0.00 0.00 0.00 0.00 0.00 0.00
0.00 0.00 0.00 0.00 0.00 0.00 0.00 0.00 0.00 0.00 0.00 0.00 0.00 0.00 0.00 0.00 0.00 0.00 0.00 0.00 0.00 0.00 0.00 0.00 0.00 0.00 0.00 0.00 0.00 0.00 0.00 0.00 0.00 0.00 0.00 0.00 0.00 0.00 0.00 0.00 0.00 0.00 0.00 0.00 0.00
MSLP
1016.28 1015.94 1015.57 1015.10 1014.89 1014.72 1014.43 1014.30 1013.99 1013.68 1013.33 1013.14 1012.99 1012.50 1012.14 1011.82 1011.28 1010.65 1008.59 1008.34 1008.00 1008.59 1008.86 1007.82 1007.84 1007.20 1006.68 1005.40 1004.82 1004.54 1004.90 1004.74 1004.49 1004.91 1004.48 1005.10 1005.05 1005.80 1006.20 1006.70 1007.03 1007.20 1007.72 1009.08 1010.58
1016.21 1015.88 1015.54 1015.08 1014.83 1014.64 1014.37 1014.15 1013.96 1013.62 1013.26 1012.99 1012.90 1012.50 1012.17 1011.89 1010.33 1008.32 1007.98 1007.93 1008.30 1008.62 1008.18 1007.67 1007.17 1006.95 1005.47 1004.81 1003.75 1004.20 1004.83 1004.53 1003.95 1004.72 1004.20 1004.79 1005.17 1005.78 1006.17 1006.61 1007.18 1007.52 1008.09 1009.54 1010.48
1016.13 1015.82 1015.48 1015.04 1014.80 1014.50 1014.27 1014.02 1013.86 1013.64 1013.23 1012.92 1012.77 1012.41 1012.11 1011.68 1009.05 1006.81 1007.61 1008.13 1008.51 1008.32 1007.58 1007.59 1007.25 1006.28 1004.50 1004.10 1003.32 1005.27 1003.98 1003.92 1003.95 1003.97 1004.23 1004.73 1005.15 1005.60 1005.75 1005.99 1006.93 1007.53 1008.62 1009.75 1010.37
1016.08 1015.74 1015.37 1014.94 1014.70 1014.41 1014.12 1013.84 1013.67 1013.46 1013.25 1012.86 1012.57 1012.43 1012.03 1010.70 1007.19 1007.44 1008.10 1008.28 1008.59 1007.78 1007.08 1006.60 1006.27 1004.99 1004.28 1003.83 1003.35 1003.63 1003.15 1003.58 1003.90 1004.19 1004.50 1004.91 1005.51 1005.41 1005.59 1005.71 1006.61 1007.67 1008.78 1009.61 1010.03
1016.01 1015.64 1015.22 1014.79 1014.50 1014.30 1013.97 1013.70 1013.40 1013.43 1013.02 1012.81 1012.49 1012.23 1011.50 1008.65 1006.30 1007.80 1008.37 1008.54 1008.34 1007.60 1006.43 1006.07 1005.87 1005.70 1004.37 1003.11 1003.23 1003.22 1003.10 1003.57 1003.97 1004.24 1004.83 1005.41 1005.53 1006.03 1006.47 1006.65 1006.99 1007.83 1008.87 1009.42 1009.68
1015.84 1015.45 1014.99 1014.61 1014.29 1014.02 1013.85 1013.45 1013.21 1013.03 1012.97 1012.61 1012.47 1012.37 1010.49 1007.02 1006.38 1007.30 1007.22 1007.85 1007.16 1006.71 1006.27 1006.61 1005.84 1004.58 1003.37 1003.15 1004.94 1002.78 1003.18 1004.04 1004.56 1004.78 1005.17 1005.34 1005.96 1005.89 1006.79 1007.02 1007.63 1008.35 1008.82 1009.15 1009.32
1015.68 1015.21 1014.73 1014.39 1014.05 1013.76 1013.63 1013.13 1012.93 1012.68 1012.64 1012.44 1012.32 1011.59 1008.51 1006.67 1005.91 1006.64 1007.02 1006.63 1006.53 1006.78 1006.51 1006.35 1005.55 1004.44 1003.80 1003.32 1003.43 1003.08 1003.51 1004.17 1004.57 1004.87 1005.05 1005.00 1005.55 1005.37 1006.71 1007.06 1007.71 1008.27 1008.69 1008.94 1009.19
1015.52 1014.97 1014.54 1014.16 1013.85 1013.61 1013.28 1012.88 1012.58 1012.32 1012.20 1012.14 1012.12 1010.71 1006.57 1006.30 1005.79 1006.31 1006.44 1006.46 1006.67 1006.97 1006.70 1005.53 1005.21 1004.40 1004.23 1004.07 1003.60 1003.25 1003.16 1003.76 1004.40 1004.69 1005.03 1005.44 1006.23 1005.63 1006.60 1006.94 1007.54 1008.06 1008.46 1008.84 1009.18
1015.28 1014.73 1014.30 1013.99 1013.68 1013.41 1012.99 1012.54 1012.13 1011.91 1011.83 1011.76 1011.20 1008.84 1005.87 1006.86 1005.95 1005.88 1006.07 1006.08 1006.29 1006.34 1006.05 1005.97 1004.96 1003.65 1004.09 1003.66 1003.46 1003.74 1005.03 1004.46 1004.13 1004.23 1004.50 1004.71 1005.29 1005.18 1006.22 1006.31 1006.76 1007.62 1008.07 1008.60 1008.96
1015.10 1014.53 1014.08 1013.80 1013.44 1013.18 1012.75 1012.45 1011.93 1011.79 1011.45 1010.40 1008.87 1007.34 1006.00 1005.21 1005.24 1005.55 1005.81 1006.08 1005.96 1005.53 1005.64 1005.31 1004.50 1003.45 1003.46 1003.38 1004.35 1004.50 1004.91 1002.91 1003.43 1003.45 1004.04 1003.99 1004.11 1004.57 1005.28 1005.46 1005.79 1006.60 1007.33 1007.93 1008.29
1014.88 1014.31 1013.86 1013.55 1013.25 1012.98 1012.57 1011.45 1010.88 1009.68 1008.32 1005.94 1004.90 1004.45 1004.23 1004.63 1005.38 1005.36 1005.60 1005.80 1005.62 1005.66 1005.17 1005.77 1004.90 1003.92 1003.29 1004.56 1005.61 1004.78 1004.01 1003.51 1003.09 1003.44 1003.72 1003.64 1004.00 1004.12 1004.26 1004.47 1004.79 1005.45 1006.44 1007.14 1007.58
1014.60 1014.06 1013.55 1013.27 1013.03 1012.75 1012.09 1008.25 1006.72 1006.14 1005.71 1005.20 1004.90 1004.02 1004.00 1004.65 1004.72 1004.85 1005.15 1005.13 1005.09 1004.59 1005.15 1005.01 1005.25 1003.97 1003.60 1003.66 1004.13 1003.78 1003.06 1003.54 1003.17 1003.25 1003.57 1003.11 1002.97 1002.82 1002.87 1003.41 1003.61 1004.29 1005.28 1006.24 1006.81
1014.26 1013.82 1013.33 1013.00 1012.72 1012.10 1008.98 1006.82 1006.53 1005.86 1004.15 1004.38 1004.04 1003.67 1003.80 1003.97 1003.68 1004.10 1004.74 1004.30 1003.97 1005.25 1005.03 1004.68 1003.30 1003.18 1003.15 1003.54 1002.68 1002.28 1002.80 1003.54 1003.11 1002.75 1003.14 1002.98 1002.09 1001.82 1001.63 1002.24 1003.06 1003.52 1004.44 1005.30 1005.93
1013.88 1013.45 1013.07 1012.74 1012.66 1008.17 1007.04 1006.80 1006.42 1006.11 1003.52 1003.29 1003.42 1002.81 1003.37 1003.39 1002.99 1003.49 1004.22 1003.64 1003.40 1004.08 1005.15 1004.46 1003.72 1003.57 1002.32 1002.06 1002.04 1002.97 1002.51 1002.24 1002.35 1002.04 1002.52 1002.77 1002.33 1001.17 1000.96 1001.65 1002.25 1003.08 1003.70 1004.44 1005.10
1013.39 1013.01 1012.81 1012.96 1010.38 1007.07 1006.68 1006.43 1006.15 1005.73 1002.13 1002.39 1002.28 1002.51 1002.76 1002.79 1001.88 1002.82 1003.70 1003.70 1003.45 1003.51 1003.59 1004.05 1002.82 1002.37 1002.07 1002.05 1002.02 1002.71 1001.64 1001.47 1001.47 1001.15 1000.75 1001.54 1001.11 1001.99 1000.40 1000.37 1001.14 1002.07 1002.87 1003.64 1004.30
1012.82 1012.54 1012.46 1011.67 1009.78 1007.08 1006.68 1006.38 1006.05 1004.28 1001.35 1001.68 1001.96 1002.52 1002.27 1002.50 1002.07 1002.03 1003.17 1003.75 1003.21 1003.48 1003.74 1003.27 1003.16 1002.38 1001.95 1002.08 1001.91 1002.01 1001.43 1001.18 1000.90 1000.54 1000.52 1002.35 1002.34 1001.41 1002.20 1000.82 1000.55 1001.32 1002.20 1003.08 1003.71
1012.26 1011.99 1012.10 1009.31 1006.89 1007.01 1006.67 1005.83 1004.07 1001.80 1001.68 1001.18 1001.32 1001.65 1001.82 1001.70 1001.77 1002.46 1002.59 1002.81 1002.83 1002.64 1002.52 1002.41 1002.34 1001.53 1001.96 1001.38 1001.35 1001.63 1000.60 999.54 999.96 1001.29 1001.87 1003.38 1002.66 1000.58 1001.05 1000.54 1001.14 1002.15 1002.72 1003.12 1003.55
1012.09 1011.91 1010.53 1008.73 1007.67 1007.27 1006.35 1004.89 1002.76 1001.31 1001.00 1001.37 1000.90 1001.03 1001.03 1000.93 1001.30 1001.70 1001.81 1001.90 1002.16 1001.79 1001.57 1002.05 1002.59 1001.67 1000.79 1001.17 1000.97 1001.23 1001.53 1000.11 1000.50 999.59 1000.59 1002.87 1004.08 999.60 1000.18 1001.22 1002.27 1003.47 1004.47 1004.94 1004.53
1011.94 1010.07 1008.02 1007.65 1007.76 1007.29 1005.68 1003.36 1001.43 1001.49 1001.43 1001.27 1001.15 1000.56 1000.45 1000.43 1000.83 1000.93 1001.17 1000.74 1000.66 1000.89 1000.68 1000.39 1000.05 999.89 1000.47 1000.73 1000.91 1000.53 1000.18 1000.02 999.82 999.53 999.55 999.23 998.86 997.79 998.81 1000.45 1001.94 1003.85 1005.43 1005.91 1005.97
1010.50 1007.31 1007.07 1007.22 1007.10 1006.58 1004.98 1002.91 1002.13 1002.49 1002.42 1001.91 1000.74 1000.66 1000.07 1000.18 1000.81 1000.97 1000.56 1000.59 1000.61 1000.64 1000.89 1000.86 1000.29 1000.02 999.95 1000.54 1000.83 1000.83 1000.63 999.93 999.43 999.57 999.37 999.09 998.47 999.30 999.31 999.26 1002.17 1004.63 1006.65 1007.72 1008.10
1009.83 1005.99 1006.74 1006.65 1006.66 1005.62 1003.55 1002.41 1002.74 1002.85 1002.83 1001.87 1000.95 1000.48 1000.53 999.90 999.99 1000.22 1000.19 1000.34 1000.97 1001.18 1001.90 1001.63 1001.00 1000.48 1000.20 999.73 999.97 999.88 1000.12 1000.20 999.96 999.85 999.06 998.85 998.31 999.07 1000.08 1000.73 1002.90 1006.25 1008.56 1010.16 1010.89
1007.98 1005.19 1006.35 1006.40 1005.40 1004.08 1003.05 1003.15 1003.98 1002.91 1002.93 1002.36 1002.15 1001.32 1000.78 1000.47 1000.48 1000.46 1000.06 1000.26 1001.17 1001.93 1001.94 1001.73 1001.19 1000.19 999.78 999.34 999.47 999.44 999.52 999.63 999.25 999.26 999.12 999.27 998.96 999.96 1001.33 1003.17 1005.04 1008.41 1010.33 1011.86 1012.67
1007.80 1006.07 1006.00 1005.66 1003.86 1003.23 1003.60 1003.59 1003.74 1003.10 1002.68 1002.29 1001.97 1002.11 1001.81 1001.43 1001.39 1000.95 1000.81 1001.67 1002.51 1002.68 1002.45 1002.07 1001.82 1000.76 999.88 999.45 999.12 999.28 999.86 999.89 999.80 999.65 999.30 999.17 999.34 1001.09 1002.84 1004.69 1006.88 1009.11 1011.24 1012.66 1013.56
1008.49 1005.74 1005.42 1005.16 1004.91 1004.29 1004.00 1003.61 1003.33 1003.80 1003.35 1003.11 1002.47 1002.62 1002.23 1001.94 1001.97 1001.74 1001.87 1001.93 1003.07 1003.33 1003.88 1004.10 1002.82 1001.92 1000.86 1000.00 1000.18 1000.37 1000.63 1000.41 1000.08 999.84 999.36 999.03 999.48 1001.66 1003.45 1005.82 1008.19 1009.66 1011.55 1012.90 1013.82
1008.90 1007.03 1007.05 1004.89 1004.93 1004.92 1004.83 1004.54 1003.61 1003.21 1003.69 1003.42 1002.89 1002.80 1002.30 1002.15 1001.97 1002.06 1002.05 1002.01 1002.69 1003.49 1004.07 1003.83 1003.10 1002.72 1002.05 1001.63 1001.33 1001.02 1000.90 1001.11 1000.96 1000.76 1000.40 1000.24 1000.41 1001.58 1003.73 1005.31 1008.02 1009.92 1011.29 1012.24 1012.98
1009.67 1008.82 1007.62 1006.45 1006.43 1005.88 1005.45 1004.52 1004.41 1003.87 1004.06 1003.13 1003.30 1002.74 1002.81 1002.83 1002.55 1002.32 1002.36 1002.60 1002.76 1003.05 1003.52 1003.34 1003.03 1003.25 1002.87 1002.53 1002.36 1002.09 1001.63 1001.41 1000.92 1001.13 1001.06 1001.43 1001.54 1002.61 1004.60 1006.26 1008.20 1009.84 1010.80 1011.37 1011.98
1011.53 1010.26 1009.28 1007.38 1006.13 1005.97 1005.28 1005.37 1005.26 1005.32 1004.76 1004.24 1003.97 1003.56 1003.36 1003.69 1003.77 1003.62 1003.65 1003.60 1003.51 1003.57 1003.76 1003.94 1003.53 1003.42 1002.69 1002.38 1001.92 1000.97 1001.11 1001.07 1001.03 1001.64 1001.82 1002.17 1002.77 1003.36 1005.14 1006.43 1008.25 1009.64 1010.47 1010.85 1011.54
Thickness
5758 5761 5765 5769 5770 5773 5776 5779 5781 5783 5786 5787 5788 5793 5797 5800 5805 5813 5818 5829 5834 5832 5830 5835 5832 5835 5840 5842 5854 5857 5815 5805 5818 5810 5824 5838 5830 5840 5845 5828 5832 5835 5828 5824 5819
5759 5762 5765 5770 5772 5774 5778 5781 5783 5786 5788 5790 5791 5795 5798 5802 5816 5825 5836 5837 5835 5834 5833 5827 5824 5832 5836 5843 5855 5799 5808 5816 5843 5830 5835 5839 5835 5832 5829 5825 5822 5826 5834 5827 5820
5760 5763 5767 5771 5773 5776 5780 5783 5785 5787 5791 5793 5794 5798 5802 5805 5817 5833 5841 5838 5836 5837 5843 5838 5836 5837 5842 5852 5856 5808 5825 5841 5844 5848 5849 5839 5835 5842 5831 5821 5826 5819 5819 5820 5817
5760 5764 5768 5772 5775 5778 5782 5785 5788 5790 5792 5796 5798 5799 5803 5815 5803 5838 5838 5839 5837 5843 5844 5840 5837 5837 5836 5836 5858 5835 5854 5850 5848 5850 5845 5834 5840 5833 5837 5836 5844 5836 5828 5822 5817
5760 5765 5770 5774 5777 5780 5784 5788 5791 5791 5796 5797 5800 5801 5810 5819 5830 5840 5837 5837 5839 5842 5841 5838 5831 5829 5820 5851 5854 5842 5851 5854 5854 5852 5846 5843 5833 5828 5826 5840 5845 5838 5827 5821 5821
5761 5767 5772 5776 5780 5783 5786 5791 5794 5796 5797 5800 5800 5800 5812 5812 5852 5845 5847 5843 5846 5845 5843 5839 5836 5852 5853 5851 5801 5859 5854 5845 5845 5843 5843 5834 5830 5837 5830 5841 5834 5829 5825 5825 5825
5763 5769 5774 5778 5782 5786 5789 5795 5797 5800 5801 5802 5802 5807 5820 5823 5857 5852 5850 5850 5854 5845 5834 5845 5854 5850 5856 5846 5862 5860 5838 5841 5840 5841 5837 5848 5822 5829 5835 5838 5827 5826 5826 5827 5827
5764 5771 5776 5781 5785 5788 5792 5798 5801 5804 5805 5806 5805 5814 5827 5853 5859 5852 5854 5848 5853 5849 5847 5862 5863 5856 5848 5858 5852 5842 5849 5816 5838 5841 5842 5831 5774 5832 5839 5832 5823 5824 5825 5825 5825
5766 5773 5779 5783 5787 5791 5795 5801 5806 5808 5809 5810 5815 5824 5826 5851 5843 5855 5856 5841 5848 5851 5856 5860 5861 5854 5850 5835 5830 5835 5768 5801 5823 5848 5840 5835 5805 5837 5841 5836 5827 5824 5825 5824 5824
5767 5775 5781 5785 5790 5794 5799 5802 5806 5809 5813 5820 5831 5820 5837 5835 5851 5854 5859 5852 5842 5847 5841 5845 5846 5840 5840 5834 5794 5806 5790 5843 5821 5842 5840 5833 5830 5839 5841 5839 5835 5831 5829 5827 5826
5769 5777 5783 5788 5792 5797 5802 5813 5813 5814 5827 5837 5844 5842 5847 5859 5862 5850 5857 5848 5849 5838 5818 5823 5820 5811 5831 5820 5808 5810 5823 5827 5842 5847 5835 5831 5824 5830 5846 5844 5839 5838 5832 5830 5830
5772 5780 5786 5791 5795 5800 5807 5828 5837 5844 5821 5847 5847 5853 5861 5859 5833 5846 5862 5835 5834 5823 5832 5825 5772 5831 5845 5844 5832 5834 5837 5820 5840 5848 5837 5836 5833 5849 5854 5850 5852 5848 5841 5835 5835
5776 5783 5789 5794 5799 5807 5832 5841 5856 5857 5834 5836 5851 5849 5851 5858 5841 5841 5853 5848 5840 5795 5821 5813 5841 5855 5846 5832 5838 5849 5831 5818 5822 5844 5844 5837 5832 5845 5863 5865 5859 5859 5852 5846 5840
5781 5787 5793 5798 5803 5841 5837 5851 5857 5857 5822 5826 5834 5852 5857 5858 5841 5868 5864 5854 5845 5826 5819 5821 5849 5837 5848 5843 5850 5787 5828 5844 5836 5834 5795 5832 5778 5841 5856 5850 5853 5852 5852 5849 5847
5786 5792 5796 5798 5821 5834 5844 5856 5859 5847 5796 5840 5846 5879 5865 5847 5860 5853 5872 5854 5830 5833 5842 5816 5843 5841 5835 5840 5854 5811 5856 5852 5849 5844 5853 5843 5833 5798 5856 5847 5850 5855 5856 5856 5855
5791 5796 5799 5807 5822 5844 5851 5854 5846 5808 5797 5829 5849 5838 5840 5846 5851 5862 5851 5859 5859 5837 5837 5837 5856 5853 5849 5853 5854 5856 5850 5851 5857 5855 5837 5800 5817 5826 5784 5841 5853 5862 5861 5859 5858
5796 5800 5802 5822 5830 5844 5849 5838 5807 5803 5842 5829 5832 5843 5837 5835 5839 5837 5832 5828 5819 5808 5812 5835 5837 5861 5858 5842 5855 5847 5846 5831 5809 5783 5806 5791 5814 5838 5836 5858 5854 5849 5853 5859 5861
5796 5799 5813 5826 5834 5839 5836 5816 5788 5825 5828 5844 5844 5843 5828 5842 5837 5835 5830 5820 5838 5837 5821 5809 5792 5834 5861 5842 5834 5829 5827 5818 5770 5817 5831 5790 5743 5841 5866 5860 5852 5846 5840 5839 5848
5797 5815 5827 5831 5832 5835 5820 5801 5815 5822 5835 5829 5833 5825 5826 5840 5836 5833 5827 5831 5847 5848 5821 5827 5830 5864 5855 5855 5847 5834 5827 5859 5831 5849 5836 5858 5861 5881 5876 5857 5851 5837 5828 5829 5835
5811 5830 5823 5833 5835 5827 5809 5800 5819 5830 5829 5829 5813 5826 5816 5826 5818 5820 5824 5840 5835 5850 5851 5831 5810 5848 5853 5848 5846 5833 5848 5819 5835 5792 5789 5824 5839 5818 5842 5853 5837 5827 5814 5813 5816
5814 5822 5829 5838 5835 5815 5802 5816 5818 5830 5828 5821 5822 5821 5822 5829 5831 5821 5824 5839 5836 5833 5834 5827 5819 5819 5838 5831 5821 5832 5821 5826 5831 5826 5805 5804 5831 5856 5847 5848 5831 5814 5799 5788 5786
5827 5813 5834 5838 5805 5819 5812 5817 5789 5819 5826 5821 5821 5821 5819 5825 5816 5817 5824 5833 5835 5829 5808 5827 5817 5804 5819 5854 5857 5847 5833 5833 5812 5809 5829 5822 5826 5857 5844 5832 5823 5791 5781 5773 5770
5818 5818 5836 5833 5802 5810 5815 5812 5813 5812 5815 5815 5811 5815 5818 5809 5794 5811 5820 5821 5818 5813 5806 5818 5800 5788 5806 5832 5849 5830 5829 5832 5832 5831 5811 5805 5821 5839 5827 5812 5799 5781 5769 5760 5756
5812 5804 5817 5821 5818 5806 5800 5802 5802 5812 5808 5810 5808 5810 5804 5798 5805 5794 5796 5811 5807 5806 5791 5796 5794 5788 5782 5804 5816 5800 5806 5817 5819 5800 5810 5822 5830 5811 5806 5791 5776 5774 5762 5752 5747
5808 5799 5799 5799 5801 5801 5801 5797 5796 5795 5804 5806 5796 5796 5796 5783 5789 5786 5797 5803 5799 5784 5788 5789 5769 5783 5791 5799 5800 5795 5798 5796 5791 5800 5790 5808 5813 5799 5791 5790 5775 5767 5759 5753 5748
5790 5785 5798 5797 5793 5789 5778 5793 5786 5792 5789 5789 5782 5795 5793 5778 5784 5778 5787 5784 5780 5790 5780 5792 5766 5769 5764 5780 5775 5763 5783 5789 5796 5792 5796 5796 5795 5799 5791 5781 5763 5755 5752 5750 5747
5784 5790 5782 5773 5792 5783 5787 5784 5781 5782 5787 5790 5785 5783 5779 5776 5784 5787 5788 5786 5784 5772 5766 5764 5762 5754 5746 5776 5775 5765 5775 5777 5783 5783 5781 5763 5761 5775 5765 5766 5753 5746 5744 5742 5738